#timestamp,LO_Frequency,Hit,StdDev 
1458745215.4,286047005.8,N
1458745235.2,286047005.7,N
1458745255.1,286047004.3,N
1458745256.0,286047004.3,N
1458745275.8,286047002.7,N
1458745295.6,286047002.6,N
1458745315.5,286047003.2,N
1458745335.3,286047004.7,N
1458745355.1,286047005.4,N
1458745375.9,286046999.8,N
1458745395.7,286046996.5,N
1458745415.5,286046995.1,N
1458745435.4,286046999.1,N
1458745455.2,286046997.3,N
1458745475.0,286046998.4,N
1458745475.9,286046998.4,N
1458745495.8,286046997.0,N
1458745515.6,286046995.1,N
1458745535.4,286046997.4,N
1458745555.3,286046994.0,N
1458745575.1,286046997.5,N
1458745576.0,286046997.5,N
1458745595.8,286046996.7,N
1458745615.6,286046995.4,N
1458745635.5,286046999.2,N
1458745655.3,286047000.6,N
1458745675.1,286046998.7,N
1458745695.9,286046997.8,N
1458745715.7,286046995.3,N
1458745735.5,286047000.3,N
1458745755.4,286046997.8,N
1458745775.2,286046997.7,N
1458745795.0,286046993.5,N
1458745795.9,286046993.5,N
1458745815.8,286046995.9,N
1458745835.6,286046997.6,N
1458745855.4,286046998.0,N
1458745875.3,286046995.9,N
1458745895.1,286046994.2,N
1458745896.0,286046994.2,Y
1458745915.8,286046997.3,P
1458745935.7,286046997.6,P
1458745955.5,286047000.8,P
1458745975.3,286046998.8,N
1458745995.2,286046996.9,N
1458746015.9,286046997.7,N
1458746035.7,286046997.1,N
1458746055.5,286046998.4,N
1458746075.4,286046999.5,N
1458746095.2,286046996.7,N
1458746115.1,286046995.3,Y
1458746116.0,286046995.3,P
1458746135.8,286046996.6,N
1458746155.6,286046999.5,N
1458746175.4,286046999.5,N
1458746195.3,286046996.9,N
1458746215.1,286046997.2,N
1458746235.8,286046999.0,N
1458746255.7,286047000.5,N
1458746275.5,286047001.1,N
1458746295.3,286047002.8,N
1458746315.2,286047002.5,N
1458746335.9,286047001.9,N
1458746355.7,286047002.9,N
1458746375.6,286047002.0,N
1458746395.4,286047002.6,N
1458746415.2,286047001.5,N
1458746435.1,286047005.8,N
1458746436.0,286047005.8,N
1458746455.8,286047006.5,N
1458746475.6,286047007.4,N
1458746495.4,286047006.9,N
1458746515.3,286047004.6,N
1458746535.1,286047006.7,N
1458746555.8,286047006.4,N
1458746575.7,286047008.4,N
1458746595.5,286047009.9,N
1458746615.3,286047010.9,N
1458746635.2,286047013.7,Y
1458746655.9,286047008.3,P
1458746675.7,286047009.7,P
1458746695.6,286047010.8,P
1458746715.4,286047010.7,Y
1458746735.2,286047004.1,P
1458746755.1,286047001.3,N
1458746756.0,286047001.3,N
1458746775.8,286047000.1,N
1458746795.6,286047002.3,N
1458746815.5,286047003.4,N
1458746835.3,286047003.2,N
1458746855.1,286047001.5,N
1458746875.9,286047000.4,N
1458746895.7,286046998.2,N
1458746915.5,286046998.3,N
1458746935.3,286047002.8,N
1458746955.2,286046999.0,N
1458746975.0,286046999.3,N
1458746975.9,286046999.3,N
1458746995.7,286047000.9,N
1458747015.6,286047004.4,N
1458747035.4,286047005.3,N
1458747055.2,286047003.3,N
1458747075.1,286047003.0,N
1458747076.0,286047003.0,N
1458747095.8,286047001.9,N
1458747115.6,286046996.8,N
1458747135.5,286046998.0,N
1458747155.3,286046995.8,N
1458747175.1,286046997.4,N
1458747195.9,286046993.9,N
1458747215.7,286046993.5,N
1458747235.5,286046991.7,N
1458747255.3,286046995.6,N
1458747275.2,286046997.4,N
1458747295.0,286046995.3,N
1458747295.9,286046995.3,N
1458747315.7,286046997.9,N
1458747335.6,286046998.3,N
1458747355.4,286047002.5,N
1458747375.2,286047002.6,N
1458747395.1,286047000.1,N
1458747396.0,286047000.1,N
1458747415.8,286047000.0,N
1458747435.6,286046998.7,N
1458747455.5,286046998.4,N
1458747475.3,286047000.8,N
1458747495.1,286046998.6,N
1458747515.9,286047002.0,N
1458747535.7,286047003.3,N
1458747555.5,286047005.4,N
1458747575.4,286047005.2,N
1458747595.2,286047009.2,N
1458747615.0,286047006.9,N
1458747615.9,286047006.9,N
1458747635.8,286047005.5,N
1458747655.6,286047005.3,N
1458747675.4,286047004.5,N
1458747695.2,286047005.6,N
1458747715.1,286047003.5,N
1458747716.0,286047003.5,N
1458747735.8,286047004.2,N
1458747755.6,286047002.3,N
1458747775.5,286046999.7,N
1458747795.3,286047001.2,N
1458747815.1,286046996.9,N
1458747835.9,286047001.2,N
1458747855.7,286046998.3,N
1458747875.5,286046995.4,N
1458747895.4,286046997.9,N
1458747915.2,286046990.3,N
1458747935.0,286046994.5,N
1458747935.9,286046994.5,N
1458747955.8,286046993.1,N
1458747975.6,286046993.6,N
1458747995.4,286046992.0,N
1458748015.3,286046993.2,N
1458748035.1,286046991.4,N
1458748036.0,286046991.4,N
1458748055.8,286046989.9,N
1458748075.6,286046985.3,N
1458748095.5,286046988.9,N
1458748115.3,286046991.4,N
1458748135.1,286046993.2,N
1458748155.9,286046994.4,N
1458748175.7,286046991.9,N
1458748195.5,286046991.8,N
1458748215.4,286046994.6,N
1458748235.2,286046994.5,N
1458748255.0,286046990.8,N
1458748255.9,286046990.8,N
1458748275.8,286046990.4,N
1458748295.6,286046990.5,N
1458748315.4,286046994.1,N
1458748335.3,286046994.2,N
1458748355.1,286046994.0,N
1458748356.0,286046994.0,N
1458748375.8,286046992.1,Y
1458748395.7,286046999.0,P
1458748415.5,286046998.5,N
1458748435.3,286046998.2,N
1458748455.2,286047001.9,N
1458748475.9,286047000.7,N
1458748495.7,286046998.1,N
1458748515.6,286047002.1,N
1458748535.4,286047001.7,N
1458748555.2,286047005.5,N
1458748575.0,286047003.9,N
1458748575.9,286047003.9,N
1458748595.8,286046999.7,N
1458748615.6,286046999.5,N
1458748635.4,286047002.3,N
1458748655.3,286046999.8,N
1458748675.1,286046997.3,N
1458748695.8,286047000.6,N
1458748715.7,286047001.9,N
1458748735.5,286047004.1,N
1458748755.3,286047005.9,N
1458748775.2,286047001.7,N
1458748795.9,286047003.4,N
